Location: Ladd Observatory
(41.8387°N, 71.3996°W)
Time: 17:33:55
(UTC-04:00)

Daily predictions for brighter satellites

Satellite Brightness Start Highest point End
(mag) Time Altitude Azimuth Time Altitude Azimuth Time Altitude Azimuth
Cosmos 1733 Rocket 4.2 20:02:21 10° NNE 20:06:09 27° ENE 20:09:55 10° SE
H-2A R/B 2.9 20:02:20 10° S 20:06:14 81° WSW 20:10:06 10° NNW
Cosmos 2360 Rocket 3.5 20:03:32 10° SE 20:07:12 18° E 20:10:52 10° ENE
Cosmos 1980 Rocket 2.9 20:02:00 10° SW 20:07:37 63° WNW 20:13:18 10° NNE
Cosmos 1634 Rocket 4.1 20:02:06 10° S 20:08:16 61° E 20:14:31 10° NNE
Cosmos 1092 Rocket 4.1 20:02:09 10° N 20:08:32 81° E 20:14:53 10° S
SJ-6B 4.3 20:05:23 10° S 20:09:07 40° W 20:12:57 10° NNW
CZ-4B DEB 4.2 20:06:57 10° ESE 20:09:16 20° ENE 20:11:35 10° NNE
Cosmos 1400 Rocket 4.2 20:07:18 10° NNW 20:11:00 42° W 20:14:44 10° SSW
Cosmos 1825 2.7 20:11:57 10° N 20:15:35 41° ENE 20:19:11 10° SSE
Cosmos 1869 Rocket 4.2 20:15:02 10° NNW 20:19:27 61° W 20:23:51 10° S
USA 186 1.4 20:18:27 10° SSE 20:21:10 71° ENE 20:24:06 10° N
BREEZE-M DEB (TANK) 3.7 20:19:04 10° W 20:21:58 57° N 20:29:01 10° ENE
Cosmos 1655 Rocket 4.3 20:16:15 10° N 20:22:28 50° ENE 20:28:36 10° SSE
SAR-Lupe-4 4.0 20:19:08 10° SE 20:22:34 45° ENE 20:26:01 10° N
GENESIS II 4.4 20:19:42 10° SSW 20:23:37 51° ESE 20:27:34 10° NE
ATLAS 5 CENTAUR R/B 3.2 20:18:57 10° NNW 20:24:26 38° NE 20:30:01 11° ESE
USA 267 3.8 20:18:06 10° NE 20:24:34 65° NW 20:31:01 10° WSW
Helios 1A 3.2 20:20:42 10° SSE 20:24:50 56° ENE 20:29:01 10° N
Resurs 1-3 4.0 20:22:23 10° S 20:26:45 69° WSW 20:31:08 10° NNW
SL-16 R/B 2.2 20:21:12 10° SSW 20:26:49 68° ESE 20:32:27 10° NNE
Cosmos 1315 Rocket 3.6 20:23:09 10° NNW 20:27:08 54° W 20:31:02 10° S
CZ-2D R/B 3.8 20:26:53 10° S 20:30:44 61° W 20:34:35 10° NNW
Cosmos 1503 Rocket 4.0 20:27:43 10° NNW 20:33:01 87° ENE 20:38:12 10° SSE
Cosmos 1933 3.9 20:30:41 10° SSE 20:34:26 38° E 20:38:11 10° NNE
Spot 2 Rocket 4.2 20:32:00 10° S 20:37:00 55° W 20:42:00 10° NNW
Cosmos 1408 2.5 20:34:12 10° N 20:37:55 85° E 20:41:34 10° S
Cosmos 1354 Rocket 4.1 20:32:56 10° NNW 20:38:14 84° WSW 20:43:29 10° SSE
SAR-Lupe-1 4.1 20:36:25 10° SSE 20:39:57 64° ENE 20:43:32 10° N
Cosmos 2242 Rocket 3.6 20:38:26 10° S 20:42:58 88° WNW 20:47:28 10° N
Cosmos 968 Rocket 4.3 20:39:43 10° N 20:44:29 35° ENE 20:47:51 17° ESE
Cosmos 2279 Rocket 4.0 20:40:56 10° S 20:47:08 72° E 20:53:20 10° NNE
Cosmos 1867 4.3 20:42:11 10° NNW 20:47:21 41° NE 20:51:02 18° ESE
Cosmos 1844 Rocket 4.4 20:47:09 10° N 20:51:03 19° NE 20:54:09 13° E
Milstar 3 4.1 20:45:13 10° WSW 20:51:49 26° SSW 20:55:57 15° SSE
H-2A R/B 3.9 20:50:22 12° E 20:52:20 14° ENE 20:54:55 10° NNE
Cosmos 1862 3.2 20:49:15 10° N 20:53:19 83° E 20:57:01 12° S
Meteor 1-29 2.9 20:51:36 10° NNE 20:55:06 87° E 20:58:33 10° SSW
Envisat 3.0 20:51:56 10° SSE 20:57:00 83° WSW 21:02:07 10° NNW
USA 234 3.3 20:53:53 18° SE 20:59:02 81° NE 21:05:36 10° NW
Cosmos 1428 Rocket 4.4 20:55:27 10° N 21:01:35 85° E 21:07:43 10° S
Resurs 01 Rocket 3.8 20:59:15 10° SSW 21:02:53 24° W 21:06:33 10° NW
Intercosmos 25 Rocket 4.0 21:01:23 10° SSW 21:04:31 51° WNW 21:08:33 10° N
Meteor 1-26 Rocket 4.5 21:00:07 10° SSE 21:05:31 50° E 21:11:06 10° NNE
Cosmos 1939 Rocket 3.1 21:05:54 14° S 21:09:22 69° WSW 21:13:22 10° NNW
OAO 3 Rocket 4.0 21:07:06 10° WSW 21:11:33 35° S 21:13:18 27° SSE
Cosmos 2219 Rocket 3.9 21:13:09 14° E 21:13:09 14° E 21:14:51 10° ENE
YAOGAN 6 2.5 21:10:21 29° SSE 21:12:05 74° ENE 21:15:42 10° N
Helios 1B rocket 3.5 21:11:06 10° N 21:15:02 45° WNW 21:18:56 10° SW
Lacrosse 4 Rocket 3.0 21:12:29 10° NW 21:16:21 31° WSW 21:19:56 12° S
Terra 3.8 21:18:40 13° ENE 21:19:31 14° ENE 21:21:52 10° NNE
H-2A R/B 4.1 21:20:23 14° ENE 21:20:49 14° ENE 21:23:03 10° NNE
Meteor 2-10 Rocket 3.7 21:16:06 10° S 21:21:55 82° E 21:27:44 10° NNE
Sich 1 Rocket 3.5 21:17:37 10° N 21:22:06 76° E 21:24:15 31° SSE
Atlas Centaur 2 3.6 21:16:44 10° SW 21:22:57 33° S 21:25:41 27° SE
ERS-1 Rocket 2.9 21:22:06 25° SSE 21:25:05 87° ENE 21:30:09 10° NNW
Cosmos 1908 Rocket 3.4 21:20:58 10° N 21:25:20 82° E 21:27:14 33° SSE
Abrixas rocket 4.3 21:24:30 10° WNW 21:27:18 25° N 21:29:24 14° NE
MOS 1-B Rocket 4.2 21:25:44 30° SE 21:28:19 48° ENE 21:33:42 10° N
SeaSat 1 3.0 21:31:07 33° ESE 21:32:45 45° ENE 21:37:27 10° NNW
Cosmos 2263 Rocket 2.8 21:27:35 10° NW 21:32:57 50° WSW 21:36:40 19° S
Cosmos 2237 4.2 21:31:30 14° S 21:36:24 59° ESE 21:42:02 10° NNE
SPOT 1/Viking Rocket 4.0 21:38:09 37° ESE 21:39:31 46° ENE 21:44:29 10° N
USA 245 4.2 21:37:25 37° SE 21:39:37 63° ENE 21:44:33 10° N
Cosmos 1782 Rocket 3.5 21:35:18 10° N 21:39:40 68° E 21:40:33 52° SE
NOSS 3-1 (C) 4.3 21:41:12 27° E 21:41:12 27° E 21:45:15 10° NE
Cosmos 2322 Rocket 4.1 21:36:55 10° WSW 21:41:52 31° NW 21:46:51 10° N
USA 229 DEB 3.6 21:37:34 10° SSW 21:44:23 79° ESE 21:51:21 10° NE
USA 229 3.6 21:37:42 10° SSW 21:44:30 78° ESE 21:51:26 10° NE
COSMOS 2428 2.8 21:43:30 36° SSE 21:45:30 53° ESE 21:51:03 10° NNE
Meteor 1-14 Rocket 4.2 21:39:49 10° N 21:45:31 88° W 21:48:11 34° S
Okean 2 Rocket 3.1 21:44:16 10° N 21:48:45 61° E 21:49:12 57° ESE
Cosmos 2360 Rocket 2.6 21:45:00 10° SW 21:50:36 64° WNW 21:56:15 10° NNE
Cosmos 1777 Rocket 4.0 21:47:37 10° NNW 21:52:54 69° ENE 21:54:03 52° SE
Meteor 1-25 Rocket 4.1 21:48:24 10° N 21:54:01 80° E 21:55:41 47° SSE
Okean 1-7 2.9 21:56:11 60° S 21:56:59 90° WNW 22:01:26 10° N
Cosmos 1633 4.5 21:54:11 10° NNE 21:55:57 20° NE 21:55:57 20° NE
Cosmos 1844 4.1 21:54:54 10° NNW 22:00:22 46° ENE 22:01:23 42° E
NOAA 11 4.4 21:58:34 35° S 22:00:53 65° WSW 22:06:22 10° NNW
MetOp-B 4.4 22:00:02 37° S 22:02:07 65° WSW 22:07:28 10° NNW
SPOT 5 2.8 22:02:04 54° S 22:03:08 76° WSW 22:07:48 10° NNW
Cosmos 2322 4.2 21:57:46 10° SW 22:03:25 60° WNW 22:09:04 10° NNE
Meteor 1-20 Rocket 4.1 22:03:05 10° N 22:08:42 87° W 22:10:06 53° S
Cosmos 1606 3.9 22:10:35 33° NNE 22:10:35 33° NNE 22:12:50 10° NNE
ATLAS 5 CENTAUR R/B 3.1 22:03:31 10° NW 22:09:18 46° WSW 22:11:35 33° SSW
Nimbus 7 Rocket 4.3 22:03:21 10° NNE 22:09:20 84° ESE 22:11:41 39° S
ASTEX 1 4.0 22:09:44 41° ENE 22:09:44 41° ENE 22:14:10 10° N
ARGOS 3.4 22:15:14 46° SSW 22:16:39 63° W 22:22:00 10° NNW
Meteor 2-6 Rocket 4.2 22:20:54 63° SSE 22:21:48 76° E 22:27:46 10° NNE
Cosmos 2151 Rocket 3.9 22:18:13 10° N 22:21:57 57° NNE 22:21:57 57° NNE
Cosmos 2333 4.2 22:23:21 42° SSW 22:25:24 83° WNW 22:31:12 10° NNE
Cosmos 2333 Rocket 2.7 22:26:29 46° ENE 22:26:29 46° ENE 22:31:02 10° NNE
Cosmos 2237 Rocket 3.3 22:29:25 30° ENE 22:29:25 30° ENE 22:32:41 10° NE
CARTOSAT-1 4.3 22:29:11 46° NNE 22:29:11 46° NNE 22:32:30 10° N
H-2A R/B 1.9 22:31:00 72° WSW 22:31:10 73° WSW 22:36:08 10° NNW
Cosmos 2278 Rocket 2.7 22:26:11 10° NNW 22:31:38 46° ENE 22:31:49 45° ENE
Cosmos 1844 Rocket 2.6 22:29:57 10° NNW 22:35:31 72° WSW 22:35:50 70° SW
SL-08 RB Rocket 4.5 22:35:33 44° WSW 22:35:41 44° W 22:40:05 10° NNW
DMSP B5D2-2 4.0 22:31:39 10° NNE 22:36:42 78° ENE 22:36:42 78° ENE
Cosmos 1782 4.1 22:42:03 40° NW 22:42:03 40° NW 22:45:20 10° N
Landsat 7 4.0 22:41:57 66° WNW 22:41:57 66° WNW 22:46:19 10° NNW
USA 234 4.4 22:41:13 26° SW 22:42:27 28° SW 22:47:55 10° WNW
NOSS 0 Rocket 4.0 22:46:44 62° ENE 22:46:44 62° ENE 22:52:08 10° NNE
CZ-4C R/B 3.1 22:43:23 10° NNW 22:50:26 62° NE 22:51:55 53° E
Cosmos 1570 Rocket 4.1 22:52:37 71° NW 22:52:37 71° NW 22:57:37 10° NNE
Cosmos 1553 Rocket 3.9 22:52:37 78° SSW 22:53:05 87° W 22:59:22 10° N
Cosmos 2219 Rocket 2.2 22:54:47 72° W 22:54:58 73° WNW 23:00:37 10° NNE
SL-08 R/B 4.3 22:49:52 10° N 22:56:01 82° W 22:56:14 81° SW
H-2A R/B 3.2 22:57:30 42° NW 22:57:30 42° NW 23:00:35 10° NNW
Terra 2.4 22:57:33 56° NW 22:57:33 56° NW 23:01:26 10° NNW
Meteor 1-27 Rocket 3.7 22:59:53 77° NW 22:59:53 77° NW 23:05:16 10° N
Cosmos 2208 Rocket 4.3 23:00:32 67° NW 23:00:32 67° NW 23:05:32 10° NNE
Cosmos 1937 Rocket 4.4 23:02:39 10° N 23:06:43 42° NNE 23:06:43 42° NNE
SeaSat 1 4.1 23:10:54 24° W 23:10:54 24° W 23:14:26 10° NW
Timation 1 Rocket 4.5 23:05:00 10° NNW 23:10:31 66° NNE 23:10:31 66° NNE
Atlas Centaur 2 4.2 23:05:04 10° WSW 23:08:19 24° SW 23:08:19 24° SW
S3M 4.4 23:22:42 52° W 23:23:11 54° WNW 23:29:16 10° N
Meteor 1-11 Rocket 4.4 23:18:34 10° NNW 23:23:21 48° WNW 23:23:21 48° WNW
Cosmos 2297 4.3 23:19:47 10° NNW 23:24:32 51° NNE 23:24:32 51° NNE
Cosmos 1898 Rocket 4.3 23:24:19 10° NNW 23:28:03 48° NNW 23:28:03 48° NNW
NOSS 3-1 (C) 4.2 23:28:28 36° W 23:30:26 49° NW 23:36:47 10° NNE
Cosmos 1709 Rocket 4.2 23:25:14 10° N 23:30:58 68° NE 23:30:58 68° NE
Cosmos 1980 4.5 23:43:53 47° NW 23:43:53 47° NW 23:49:08 10° NNE
NOSS 3-1 (A) 4.0 23:45:12 48° WNW 23:45:57 51° NW 23:52:22 10° NNE
ATLAS 2AS CENTAUR R/B 3.6 23:48:53 43° E 23:48:53 43° E 23:54:48 10° NE
SL-16 R/B 3.2 23:50:51 40° NNE 23:50:51 40° NNE 23:54:26 10° NNE
